NORTHEAST SUFFOLK  -  Winter Weather Advisory Winter Weather Advisory        NORTHERN NASSAU  -  Winter Weather Advisory Winter Weather Advisory        NORTHERN QUEENS  -  Winter Weather Advisory Winter Weather Advisory        NORTHWEST SUFFOLK  -  Winter Weather Advisory Winter Weather Advisory        SOUTHEAST SUFFOLK  -  Winter Weather Advisory Winter Weather Advisory        SOUTHERN NASSAU  -  Winter Weather Advisory Winter Weather Advisory        SOUTHERN QUEENS  -  Winter Weather Advisory Winter Weather Advisory        SOUTHWEST SUFFOLK  -  Winter Weather Advisory Winter Weather Advisory      

Active alerts

Northern Queens
  Details for Northern Queens Winter Weather Advisory
Southern Queens
  Details for Southern Queens Winter Weather Advisory
Northern Nassau
  Details for Northern Nassau Winter Weather Advisory
Southern Nassau
  Details for Southern Nassau Winter Weather Advisory
Northwest Suffolk
  Details for Northwest Suffolk Winter Weather Advisory
Southwest Suffolk
  Details for Southwest Suffolk Winter Weather Advisory
Northeast Suffolk
  Details for Northeast Suffolk Winter Weather Advisory
Southeast Suffolk
  Details for Southeast Suffolk Winter Weather Advisory


WXM80 ListenWXM80 Stop

You find our weather info also at:

UK Metoffice

WeatherCloud

Weather Underground

Northeastern Weather Network

AWEKAS

Citizen Weather Observer Program (CWOP)

HAMweather, WeatherForYou, PWS Weather


Weather Underground History page Text

Daily Summary for January 18, 2018 Units:  English    Metric   Both
« Previous Day
Next Day »
Daily Weekly Monthly Yearly Custom
  High: Low: Average:
Temperature: 31.1 °F 19.7 °F 25.6 °F
Dew Point: 20.5 °F 14.7 °F 17.7 °F
Humidity: 83 % 60 % 72 %
Wind Speed: 8.7 mph 0.0 mph 3.6 mph
Wind Gust: 15.0 mph - -
Wind:- - WNW
Pressure: 29.90 in 29.67 in -
Precipitation: 0.00 in    
Historical Graphs
 
 
Tabular Data for January 18, 2018
Time Temperature Dew Point Pressure Wind Wind Speed Wind Gust Humidity Rainfall Rate (Hourly)
00:04 25.2 °F 20.5 °F 29.88 in NNW 2.7 mph 4.0 mph 82 % 0.00 in
00:09 25.1 °F 20.4 °F 29.89 in NW 0.9 mph 5.8 mph 82 % 0.00 in
00:14 25.0 °F 20.3 °F 29.89 in NNW 2.8 mph 6.9 mph 82 % 0.00 in
00:19 24.9 °F 19.9 °F 29.90 in WNW 2.3 mph 6.9 mph 81 % 0.00 in
00:24 24.7 °F 19.7 °F 29.90 in WNW 3.9 mph 6.9 mph 81 % 0.00 in
00:29 24.6 °F 19.3 °F 29.89 in NW 4.2 mph 5.0 mph 80 % 0.00 in
00:34 24.5 °F 19.2 °F 29.88 in West 4.7 mph 7.0 mph 80 % 0.00 in
00:39 24.4 °F 19.1 °F 29.88 in NNW 2.8 mph 5.8 mph 80 % 0.00 in
00:44 24.2 °F 18.9 °F 29.87 in NNW 4.1 mph 9.2 mph 80 % 0.00 in
00:50 24.1 °F 18.8 °F 29.88 in NNW 4.7 mph 9.2 mph 80 % 0.00 in
00:55 24.0 °F 18.4 °F 29.89 in NW 2.4 mph 4.6 mph 79 % 0.00 in
01:00 24.0 °F 18.4 °F 29.89 in WNW 2.3 mph 8.1 mph 79 % 0.00 in
01:05 23.9 °F 18.3 °F 29.88 in NW 0.8 mph 4.6 mph 79 % 0.00 in
01:10 23.9 °F 18.3 °F 29.88 in NW 2.1 mph 5.8 mph 79 % 0.00 in
01:15 23.8 °F 18.5 °F 29.88 in NW 1.9 mph 3.5 mph 80 % 0.00 in
01:20 23.7 °F 18.4 °F 29.88 in NW 3.8 mph 8.1 mph 80 % 0.00 in
01:25 23.6 °F 18.3 °F 29.88 in NNW 3.1 mph 4.6 mph 80 % 0.00 in
01:30 23.5 °F 18.2 °F 29.88 in NW 3.1 mph 4.6 mph 80 % 0.00 in
01:35 23.4 °F 18.1 °F 29.87 in NW 4.2 mph 10.4 mph 80 % 0.00 in
01:40 23.4 °F 18.1 °F 29.88 in NNW 3.9 mph 6.9 mph 80 % 0.00 in
01:45 23.3 °F 18.0 °F 29.88 in NW 2.5 mph 6.9 mph 80 % 0.00 in
01:50 23.1 °F 17.8 °F 29.88 in NW 2.7 mph 6.9 mph 80 % 0.00 in
01:55 23.0 °F 17.7 °F 29.87 in NNW 3.5 mph 6.0 mph 80 % 0.00 in
02:00 22.9 °F 17.7 °F 29.87 in NNW 4.3 mph 5.8 mph 80 % 0.00 in
02:05 22.7 °F 17.5 °F 29.87 in North 3.9 mph 8.0 mph 80 % 0.00 in
02:10 22.7 °F 17.5 °F 29.87 in NW 5.4 mph 11.5 mph 80 % 0.00 in
02:16 22.5 °F 17.0 °F 29.87 in NW 4.5 mph 5.0 mph 79 % 0.00 in
02:21 22.4 °F 16.9 °F 29.87 in NNW 3.0 mph 8.0 mph 79 % 0.00 in
02:26 22.4 °F 16.9 °F 29.87 in NW 3.0 mph 10.0 mph 79 % 0.00 in
02:31 22.3 °F 16.8 °F 29.87 in NW 3.0 mph 7.0 mph 79 % 0.00 in
02:36 22.2 °F 17.0 °F 29.86 in NW 6.0 mph 12.0 mph 80 % 0.00 in
02:41 22.1 °F 16.9 °F 29.87 in NW 3.0 mph 9.0 mph 80 % 0.00 in
02:46 22.0 °F 16.8 °F 29.86 in NNW 3.0 mph 9.0 mph 80 % 0.00 in
02:51 22.0 °F 17.1 °F 29.86 in NNW 5.0 mph 10.0 mph 81 % 0.00 in
02:56 21.9 °F 17.0 °F 29.85 in NNW 3.0 mph 9.0 mph 81 % 0.00 in
03:01 21.9 °F 17.2 °F 29.86 in NW 2.9 mph 5.8 mph 82 % 0.00 in
03:06 21.8 °F 17.2 °F 29.85 in NW 5.0 mph 12.0 mph 82 % 0.00 in
03:11 21.7 °F 16.8 °F 29.86 in NNW 5.0 mph 8.0 mph 81 % 0.00 in
03:16 21.6 °F 16.7 °F 29.85 in NW 5.8 mph 6.0 mph 81 % 0.00 in
03:21 21.5 °F 16.6 °F 29.85 in NW 6.0 mph 9.0 mph 81 % 0.00 in
03:26 21.5 °F 16.6 °F 29.85 in NW 5.0 mph 12.0 mph 81 % 0.00 in
03:31 21.4 °F 16.8 °F 29.84 in NW 5.0 mph 12.0 mph 82 % 0.00 in
03:36 21.3 °F 16.7 °F 29.83 in NW 5.0 mph 8.0 mph 82 % 0.00 in
03:41 21.2 °F 16.6 °F 29.83 in NW 3.0 mph 8.0 mph 82 % 0.00 in
03:46 21.2 °F 16.6 °F 29.82 in NNW 3.0 mph 9.0 mph 82 % 0.00 in
03:51 21.1 °F 16.5 °F 29.82 in WNW 4.8 mph 11.5 mph 82 % 0.00 in
03:56 21.1 °F 16.5 °F 29.82 in NW 3.0 mph 8.0 mph 82 % 0.00 in
04:01 21.0 °F 16.6 °F 29.82 in NNW 4.5 mph 8.1 mph 83 % 0.00 in
04:06 20.9 °F 16.3 °F 29.82 in NNW 4.5 mph 8.1 mph 82 % 0.00 in
04:11 20.9 °F 16.5 °F 29.82 in NNW 4.2 mph 6.9 mph 83 % 0.00 in
04:16 20.9 °F 16.5 °F 29.81 in NNW 3.5 mph 7.0 mph 83 % 0.00 in
04:21 20.8 °F 16.5 °F 29.80 in NNW 2.4 mph 4.0 mph 83 % 0.00 in
04:26 20.7 °F 16.4 °F 29.80 in NNW 4.3 mph 10.4 mph 83 % 0.00 in
04:31 20.6 °F 16.3 °F 29.80 in NW 3.6 mph 6.9 mph 83 % 0.00 in
04:36 20.6 °F 16.0 °F 29.80 in NW 4.8 mph 8.1 mph 82 % 0.00 in
04:41 20.5 °F 15.9 °F 29.79 in NNW 6.0 mph 6.0 mph 82 % 0.00 in
04:46 20.4 °F 15.8 °F 29.79 in NNW 3.1 mph 5.8 mph 82 % 0.00 in
04:51 20.4 °F 15.8 °F 29.79 in NW 4.9 mph 8.1 mph 82 % 0.00 in
04:56 20.4 °F 15.8 °F 29.79 in WNW 4.3 mph 7.0 mph 82 % 0.00 in
05:01 20.3 °F 15.7 °F 29.78 in NNW 3.6 mph 5.8 mph 82 % 0.00 in
05:06 20.3 °F 16.0 °F 29.78 in NNW 2.7 mph 5.8 mph 83 % 0.00 in
05:11 20.3 °F 16.0 °F 29.79 in WNW 4.2 mph 10.4 mph 83 % 0.00 in
05:16 20.3 °F 16.0 °F 29.79 in NNW 3.4 mph 9.2 mph 83 % 0.00 in
05:21 20.3 °F 15.7 °F 29.79 in NW 3.1 mph 5.8 mph 82 % 0.00 in
05:26 20.3 °F 15.7 °F 29.79 in NNW 3.2 mph 6.0 mph 82 % 0.00 in
05:32 20.2 °F 15.6 °F 29.79 in WNW 1.4 mph 6.0 mph 82 % 0.00 in
05:37 20.2 °F 15.6 °F 29.78 in North 3.4 mph 5.8 mph 82 % 0.00 in
05:42 20.2 °F 15.6 °F 29.78 in NW 2.6 mph 5.8 mph 82 % 0.00 in
05:47 20.2 °F 15.6 °F 29.78 in NW 2.4 mph 6.9 mph 82 % 0.00 in
05:52 20.1 °F 15.8 °F 29.78 in North 2.7 mph 6.0 mph 83 % 0.00 in
05:57 20.1 °F 15.8 °F 29.78 in NNW 2.3 mph 6.9 mph 83 % 0.00 in
06:02 20.1 °F 15.5 °F 29.79 in North 2.9 mph 7.0 mph 82 % 0.00 in
06:07 20.0 °F 15.4 °F 29.80 in North 3.4 mph 5.8 mph 82 % 0.00 in
06:12 20.0 °F 15.4 °F 29.81 in NNW 1.4 mph 3.5 mph 82 % 0.00 in
06:17 20.0 °F 15.4 °F 29.81 in NW 1.3 mph 4.0 mph 82 % 0.00 in
06:22 19.9 °F 15.3 °F 29.81 in North 3.5 mph 4.6 mph 82 % 0.00 in
06:27 19.8 °F 14.9 °F 29.82 in NNW 0.6 mph 2.3 mph 81 % 0.00 in
06:32 19.8 °F 14.9 °F 29.82 in NNW 2.1 mph 3.5 mph 81 % 0.00 in
06:37 19.8 °F 14.9 °F 29.82 in NW 3.0 mph 4.6 mph 81 % 0.00 in
06:42 19.8 °F 14.9 °F 29.82 in WNW 0.9 mph 5.0 mph 81 % 0.00 in
06:47 19.8 °F 14.9 °F 29.82 in WNW 2.5 mph 4.6 mph 81 % 0.00 in
06:52 19.8 °F 14.9 °F 29.82 in WNW 1.0 mph 3.5 mph 81 % 0.00 in
06:57 19.7 °F 14.8 °F 29.82 in WNW 2.3 mph 5.8 mph 81 % 0.00 in
07:02 19.7 °F 14.8 °F 29.81 in West 2.7 mph 8.1 mph 81 % 0.00 in
07:07 19.7 °F 14.8 °F 29.81 in WNW 3.3 mph 6.9 mph 81 % 0.00 in
07:13 19.7 °F 15.1 °F 29.82 in WSW 4.1 mph 6.9 mph 82 % 0.00 in
07:18 19.7 °F 15.1 °F 29.82 in NW 1.4 mph 4.6 mph 82 % 0.00 in
07:23 19.7 °F 14.8 °F 29.82 in WNW 4.4 mph 8.1 mph 81 % 0.00 in
07:28 19.7 °F 14.8 °F 29.82 in West 3.8 mph 9.2 mph 81 % 0.00 in
07:33 19.7 °F 14.8 °F 29.82 in WNW 4.5 mph 8.1 mph 81 % 0.00 in
07:38 19.7 °F 14.8 °F 29.82 in WNW 8.5 mph 15.0 mph 81 % 0.00 in
07:43 19.7 °F 14.8 °F 29.81 in NW 7.5 mph 12.7 mph 81 % 0.00 in
07:48 19.9 °F 14.7 °F 29.81 in West 3.2 mph 10.4 mph 80 % 0.00 in
07:53 20.0 °F 15.1 °F 29.81 in NW 5.2 mph 10.0 mph 81 % 0.00 in
07:58 20.2 °F 15.3 °F 29.80 in WNW 7.1 mph 10.4 mph 81 % 0.00 in
08:03 20.3 °F 15.1 °F 29.80 in WNW 7.6 mph 13.8 mph 80 % 0.00 in
08:08 20.4 °F 15.2 °F 29.80 in NNW 6.8 mph 13.8 mph 80 % 0.00 in
08:13 20.6 °F 15.1 °F 29.80 in West 4.3 mph 13.8 mph 79 % 0.00 in
08:18 20.8 °F 15.0 °F 29.80 in West 6.4 mph 11.5 mph 78 % 0.00 in
08:23 20.9 °F 15.1 °F 29.80 in West 8.1 mph 11.5 mph 78 % 0.00 in
08:28 21.1 °F 15.0 °F 29.80 in WNW 7.5 mph 12.7 mph 77 % 0.00 in
08:33 21.2 °F 15.1 °F 29.80 in NW 6.8 mph 12.0 mph 77 % 0.00 in
08:38 21.3 °F 14.9 °F 29.80 in WNW 8.7 mph 15.0 mph 76 % 0.00 in
08:44 21.5 °F 15.1 °F 29.80 in WNW 5.5 mph 11.5 mph 76 % 0.00 in
08:49 21.7 °F 15.3 °F 29.80 in WSW 5.0 mph 11.5 mph 76 % 0.00 in
08:54 21.9 °F 15.5 °F 29.80 in WNW 6.3 mph 12.7 mph 76 % 0.00 in
08:59 22.1 °F 15.7 °F 29.80 in NNW 6.6 mph 11.5 mph 76 % 0.00 in
09:04 22.3 °F 15.9 °F 29.80 in WNW 6.4 mph 11.5 mph 76 % 0.00 in
09:09 22.4 °F 16.0 °F 29.80 in WNW 4.3 mph 8.1 mph 76 % 0.00 in
09:14 22.7 °F 16.3 °F 29.80 in WNW 3.1 mph 9.2 mph 76 % 0.00 in
09:19 23.0 °F 16.6 °F 29.80 in NW 5.9 mph 11.5 mph 76 % 0.00 in
09:24 23.4 °F 16.9 °F 29.81 in WNW 4.7 mph 6.9 mph 76 % 0.00 in
09:29 23.8 °F 17.0 °F 29.81 in NW 2.3 mph 4.6 mph 75 % 0.00 in
09:34 24.3 °F 17.5 °F 29.81 in NW 4.0 mph 9.2 mph 75 % 0.00 in
09:39 24.8 °F 17.4 °F 29.81 in NW 2.0 mph 6.9 mph 73 % 0.00 in
09:44 25.2 °F 17.8 °F 29.81 in WNW 4.9 mph 8.1 mph 73 % 0.00 in
09:49 25.5 °F 17.7 °F 29.81 in NW 3.4 mph 6.9 mph 72 % 0.00 in
09:54 25.7 °F 17.6 °F 29.81 in NW 2.6 mph 5.8 mph 71 % 0.00 in
09:59 26.1 °F 18.0 °F 29.81 in NW 2.2 mph 8.1 mph 71 % 0.00 in
10:04 26.4 °F 17.6 °F 29.81 in West 3.7 mph 7.0 mph 69 % 0.00 in
10:10 26.6 °F 17.5 °F 29.81 in NW 3.3 mph 5.8 mph 68 % 0.00 in
10:15 27.0 °F 17.8 °F 29.81 in WNW 2.3 mph 4.6 mph 68 % 0.00 in
10:20 27.2 °F 17.7 °F 29.81 in West 1.3 mph 8.1 mph 67 % 0.00 in
10:25 27.4 °F 17.9 °F 29.81 in WNW 2.6 mph 6.0 mph 67 % 0.00 in
10:30 27.6 °F 17.4 °F 29.81 in NW 3.3 mph 8.1 mph 65 % 0.00 in
10:35 28.0 °F 18.5 °F 29.81 in WNW 0.8 mph 3.5 mph 67 % 0.00 in
10:40 28.2 °F 17.9 °F 29.81 in WSW 2.1 mph 4.6 mph 65 % 0.00 in
10:45 28.4 °F 18.1 °F 29.80 in West 3.9 mph 8.1 mph 65 % 0.00 in
10:50 28.5 °F 17.9 °F 29.79 in NW 5.3 mph 10.4 mph 64 % 0.00 in
10:55 28.5 °F 17.9 °F 29.79 in NW 4.1 mph 6.0 mph 64 % 0.00 in
11:00 28.6 °F 17.6 °F 29.78 in WNW 4.4 mph 5.8 mph 63 % 0.00 in
11:05 28.8 °F 17.8 °F 29.78 in NNE 4.7 mph 5.8 mph 63 % 0.00 in
11:10 28.7 °F 17.7 °F 29.78 in NW 3.1 mph 4.6 mph 63 % 0.00 in
11:13 28.7 °F 18.1 °F 29.77 in WNW 4.2 mph 7.0 mph 64 % 0.00 in
11:18 28.7 °F 17.7 °F 29.76 in NNW 3.0 mph 9.2 mph 63 % 0.00 in
11:23 28.7 °F 17.7 °F 29.75 in WNW 5.2 mph 10.4 mph 63 % 0.00 in
11:28 28.5 °F 17.9 °F 29.75 in NW 3.6 mph 7.0 mph 64 % 0.00 in
11:33 28.3 °F 17.7 °F 29.75 in NNW 3.3 mph 6.9 mph 64 % 0.00 in
11:38 28.3 °F 17.7 °F 29.75 in WNW 3.3 mph 8.1 mph 64 % 0.00 in
11:43 28.3 °F 17.7 °F 29.75 in WNW 3.0 mph 8.1 mph 64 % 0.00 in
11:48 28.2 °F 17.6 °F 29.74 in NNW 4.4 mph 9.2 mph 64 % 0.00 in
11:53 28.1 °F 17.8 °F 29.74 in NNW 6.0 mph 10.4 mph 65 % 0.00 in
11:58 28.2 °F 17.9 °F 29.73 in NW 4.4 mph 9.2 mph 65 % 0.00 in
12:03 28.1 °F 18.2 °F 29.73 in NNW 3.2 mph 6.9 mph 66 % 0.00 in
12:08 28.2 °F 17.9 °F 29.72 in NNW 5.2 mph 5.8 mph 65 % 0.00 in
12:13 28.3 °F 18.4 °F 29.72 in NNW 6.4 mph 10.4 mph 66 % 0.00 in
12:18 28.4 °F 18.5 °F 29.71 in NW 6.2 mph 10.0 mph 66 % 0.00 in
12:23 28.6 °F 18.7 °F 29.71 in NW 4.3 mph 15.0 mph 66 % 0.00 in
12:29 28.9 °F 19.0 °F 29.71 in NW 4.0 mph 8.1 mph 66 % 0.00 in
12:34 29.1 °F 18.4 °F 29.71 in NW 6.4 mph 15.0 mph 64 % 0.00 in
12:39 29.3 °F 18.6 °F 29.71 in NNW 5.9 mph 11.5 mph 64 % 0.00 in
12:44 29.5 °F 18.8 °F 29.71 in NW 5.7 mph 11.5 mph 64 % 0.00 in
12:49 29.6 °F 18.5 °F 29.70 in WNW 4.7 mph 12.7 mph 63 % 0.00 in
12:54 29.6 °F 18.5 °F 29.70 in West 4.7 mph 11.5 mph 63 % 0.00 in
12:59 29.8 °F 19.1 °F 29.70 in West 6.6 mph 13.0 mph 64 % 0.00 in
13:04 29.8 °F 18.4 °F 29.69 in WNW 6.6 mph 9.2 mph 62 % 0.00 in
13:09 29.9 °F 18.5 °F 29.69 in WNW 5.7 mph 10.4 mph 62 % 0.00 in
13:14 30.0 °F 18.9 °F 29.69 in NW 3.7 mph 10.0 mph 63 % 0.00 in
13:19 30.1 °F 18.6 °F 29.68 in NW 4.8 mph 9.2 mph 62 % 0.00 in
13:24 30.3 °F 18.8 °F 29.68 in North 6.0 mph 12.7 mph 62 % 0.00 in
13:29 30.4 °F 18.9 °F 29.68 in NNW 3.8 mph 6.9 mph 62 % 0.00 in
13:34 30.5 °F 19.0 °F 29.68 in NW 3.2 mph 6.9 mph 62 % 0.00 in
13:39 30.6 °F 18.3 °F 29.68 in WNW 5.9 mph 12.7 mph 60 % 0.00 in
13:44 30.7 °F 18.8 °F 29.68 in NNE 4.9 mph 10.4 mph 61 % 0.00 in
13:49 30.8 °F 18.9 °F 29.68 in NW 1.7 mph 4.6 mph 61 % 0.00 in
13:54 31.0 °F 19.1 °F 29.68 in NW 5.6 mph 9.2 mph 61 % 0.00 in
13:59 31.0 °F 18.7 °F 29.68 in WNW 5.6 mph 8.1 mph 60 % 0.00 in
14:05 31.0 °F 18.7 °F 29.68 in West 5.5 mph 5.8 mph 60 % 0.00 in
14:10 31.0 °F 18.7 °F 29.68 in NNW 5.2 mph 8.1 mph 60 % 0.00 in
14:15 31.0 °F 19.1 °F 29.68 in NW 1.5 mph 6.9 mph 61 % 0.00 in
14:20 31.1 °F 19.2 °F 29.68 in NW 3.7 mph 8.1 mph 61 % 0.00 in
14:25 31.0 °F 19.1 °F 29.68 in NW 4.0 mph 8.1 mph 61 % 0.00 in
14:30 30.9 °F 19.0 °F 29.68 in West 3.5 mph 8.1 mph 61 % 0.00 in
14:35 30.8 °F 19.3 °F 29.68 in WNW 6.6 mph 11.5 mph 62 % 0.00 in
14:40 30.7 °F 19.6 °F 29.67 in NW 4.5 mph 9.2 mph 63 % 0.00 in
14:45 30.6 °F 19.5 °F 29.67 in North 4.6 mph 8.0 mph 63 % 0.00 in
14:50 30.5 °F 19.4 °F 29.68 in WNW 5.1 mph 10.0 mph 63 % 0.00 in
14:55 30.3 °F 18.8 °F 29.68 in NNW 4.9 mph 8.1 mph 62 % 0.00 in
15:00 30.2 °F 18.7 °F 29.68 in North 4.9 mph 5.8 mph 62 % 0.00 in
15:05 30.1 °F 18.3 °F 29.67 in North 4.1 mph 6.9 mph 61 % 0.00 in
15:10 29.9 °F 18.1 °F 29.68 in NW 3.0 mph 9.2 mph 61 % 0.00 in
15:15 29.9 °F 18.5 °F 29.68 in NW 5.0 mph 10.0 mph 62 % 0.00 in
15:20 29.8 °F 18.0 °F 29.68 in NW 5.0 mph 9.2 mph 61 % 0.00 in
15:25 29.7 °F 18.3 °F 29.68 in WNW 4.8 mph 8.1 mph 62 % 0.00 in
15:30 29.7 °F 17.9 °F 29.68 in NNW 6.3 mph 11.0 mph 61 % 0.00 in
15:35 29.7 °F 17.9 °F 29.68 in NNW 5.7 mph 8.1 mph 61 % 0.00 in
15:41 29.6 °F 17.8 °F 29.69 in NNW 4.4 mph 8.1 mph 61 % 0.00 in
15:46 29.6 °F 17.8 °F 29.68 in NW 5.0 mph 10.0 mph 61 % 0.00 in
15:51 29.6 °F 17.8 °F 29.68 in NNW 4.3 mph 9.2 mph 61 % 0.00 in
15:56 29.6 °F 18.2 °F 29.68 in NW 4.5 mph 9.2 mph 62 % 0.00 in
16:01 29.6 °F 18.2 °F 29.69 in NW 5.3 mph 10.4 mph 62 % 0.00 in
16:06 29.7 °F 18.6 °F 29.69 in North 6.9 mph 12.7 mph 63 % 0.00 in
16:11 29.7 °F 18.6 °F 29.69 in WNW 3.4 mph 7.0 mph 63 % 0.00 in
16:16 29.6 °F 18.5 °F 29.69 in NNW 4.1 mph 6.9 mph 63 % 0.00 in
16:21 29.6 °F 18.9 °F 29.69 in North 5.2 mph 9.0 mph 64 % 0.00 in
16:26 29.6 °F 18.5 °F 29.69 in NNE 5.0 mph 12.7 mph 63 % 0.00 in
16:31 29.6 °F 18.5 °F 29.70 in NNW 7.3 mph 9.2 mph 63 % 0.00 in
16:36 29.6 °F 18.2 °F 29.70 in NW 6.0 mph 9.2 mph 62 % 0.00 in
16:41 29.6 °F 17.8 °F 29.70 in NNW 6.7 mph 10.4 mph 61 % 0.00 in
16:46 29.6 °F 18.2 °F 29.71 in NNW 4.3 mph 8.1 mph 62 % 0.00 in
16:51 29.6 °F 18.2 °F 29.72 in WNW 5.4 mph 8.1 mph 62 % 0.00 in
16:57 29.5 °F 18.4 °F 29.72 in North 4.1 mph 11.0 mph 63 % 0.00 in
17:02 29.4 °F 18.3 °F 29.72 in NNW 4.7 mph 6.9 mph 63 % 0.00 in
17:07 29.4 °F 18.3 °F 29.72 in NW 4.2 mph 4.6 mph 63 % 0.00 in
17:12 29.3 °F 17.9 °F 29.72 in NW 5.8 mph 10.4 mph 62 % 0.00 in
17:17 29.2 °F 18.2 °F 29.72 in NNW 4.6 mph 6.9 mph 63 % 0.00 in
17:22 29.2 °F 18.2 °F 29.73 in NNW 4.3 mph 6.9 mph 63 % 0.00 in
17:27 29.1 °F 18.4 °F 29.73 in NNW 0.6 mph 3.5 mph 64 % 0.00 in
17:32 29.0 °F 18.7 °F 29.74 in NNW 4.8 mph 10.4 mph 65 % 0.00 in
17:37 28.9 °F 18.2 °F 29.74 in North 4.1 mph 6.9 mph 64 % 0.00 in
17:42 28.9 °F 18.6 °F 29.74 in North 3.9 mph 5.8 mph 65 % 0.00 in
17:47 28.8 °F 18.5 °F 29.74 in North 4.8 mph 6.9 mph 65 % 0.00 in
17:52 28.7 °F 18.1 °F 29.74 in NNE 6.1 mph 9.2 mph 64 % 0.00 in
17:57 28.6 °F 18.3 °F 29.75 in North 3.7 mph 6.0 mph 65 % 0.00 in
18:02 28.6 °F 18.3 °F 29.75 in North 4.6 mph 6.9 mph 65 % 0.00 in
18:07 28.5 °F 18.2 °F 29.75 in North 4.8 mph 6.9 mph 65 % 0.00 in
18:12 28.5 °F 18.6 °F 29.76 in NNE 2.4 mph 5.8 mph 66 % 0.00 in
18:17 28.4 °F 18.5 °F 29.76 in North 2.6 mph 6.0 mph 66 % 0.00 in
18:23 28.4 °F 18.5 °F 29.76 in NW 3.0 mph 5.8 mph 66 % 0.00 in
18:28 28.4 °F 18.5 °F 29.77 in NNW 2.6 mph 6.9 mph 66 % 0.00 in
18:33 28.3 °F 18.7 °F 29.77 in NNW 2.7 mph 4.6 mph 67 % 0.00 in
18:38 28.3 °F 18.7 °F 29.77 in North 1.9 mph 6.0 mph 67 % 0.00 in
18:43 28.2 °F 18.6 °F 29.77 in North 2.8 mph 5.8 mph 67 % 0.00 in
18:48 28.2 °F 18.6 °F 29.78 in North 4.0 mph 5.8 mph 67 % 0.00 in
18:53 28.1 °F 18.9 °F 29.77 in NNW 3.7 mph 5.8 mph 68 % 0.00 in
18:58 28.1 °F 18.9 °F 29.78 in NW 2.4 mph 3.5 mph 68 % 0.00 in
19:03 28.1 °F 18.5 °F 29.78 in NNW 3.2 mph 4.6 mph 67 % 0.00 in
19:08 28.1 °F 18.5 °F 29.78 in NNE 1.3 mph 3.5 mph 67 % 0.00 in
19:13 28.0 °F 18.8 °F 29.78 in NW 2.1 mph 3.5 mph 68 % 0.00 in
19:18 28.0 °F 18.5 °F 29.78 in NNW 0.8 mph 3.5 mph 67 % 0.00 in
19:23 28.0 °F 18.5 °F 29.79 in NW 2.5 mph 3.5 mph 67 % 0.00 in
19:28 28.0 °F 18.5 °F 29.78 in NNW 3.8 mph 6.9 mph 67 % 0.00 in
19:33 27.9 °F 18.4 °F 29.78 in NW 1.7 mph 3.5 mph 67 % 0.00 in
19:38 27.9 °F 18.4 °F 29.79 in NNW 0.7 mph 1.2 mph 67 % 0.00 in
19:43 27.9 °F 18.4 °F 29.79 in NW 1.4 mph 3.0 mph 67 % 0.00 in
19:48 27.9 °F 18.7 °F 29.79 in WNW 3.4 mph 7.0 mph 68 % 0.00 in
19:53 27.8 °F 18.6 °F 29.79 in NW 1.1 mph 3.5 mph 68 % 0.00 in
19:58 27.8 °F 18.9 °F 29.80 in NW 0.5 mph 3.5 mph 69 % 0.00 in
20:03 27.7 °F 18.8 °F 29.80 in NW 3.9 mph 6.0 mph 69 % 0.00 in
20:08 27.7 °F 18.8 °F 29.80 in NNE 2.8 mph 3.5 mph 69 % 0.00 in
20:14 27.6 °F 18.8 °F 29.79 in NNE 3.5 mph 4.0 mph 69 % 0.00 in
20:19 27.6 °F 18.8 °F 29.79 in North 0.7 mph 2.3 mph 69 % 0.00 in
20:24 27.5 °F 18.7 °F 29.79 in North 2.7 mph 4.6 mph 69 % 0.00 in
20:29 27.5 °F 18.7 °F 29.80 in North 1.8 mph 3.5 mph 69 % 0.00 in
20:34 27.4 °F 18.9 °F 29.80 in North 2.2 mph 4.6 mph 70 % 0.00 in
20:39 27.4 °F 18.6 °F 29.80 in NNW 3.5 mph 8.1 mph 69 % 0.00 in
20:44 27.4 °F 18.6 °F 29.80 in NNW 1.2 mph 3.5 mph 69 % 0.00 in
20:49 27.4 °F 18.2 °F 29.80 in NW 1.7 mph 3.5 mph 68 % 0.00 in
20:54 27.4 °F 18.6 °F 29.81 in NW 1.1 mph 3.5 mph 69 % 0.00 in
20:59 27.3 °F 18.5 °F 29.81 in WNW 2.3 mph 3.5 mph 69 % 0.00 in
21:04 27.3 °F 18.5 °F 29.82 in NNW 0.4 mph 3.5 mph 69 % 0.00 in
21:09 27.2 °F 18.4 °F 29.82 in Calm   3.5 mph 69 % 0.00 in
21:14 27.2 °F 18.7 °F 29.82 in NW 2.8 mph 5.0 mph 70 % 0.00 in
21:19 27.1 °F 18.6 °F 29.82 in NW 1.2 mph 3.5 mph 70 % 0.00 in
21:24 27.1 °F 18.6 °F 29.82 in WNW 0.7 mph 5.8 mph 70 % 0.00 in
21:29 27.0 °F 18.5 °F 29.82 in NW 1.6 mph 3.5 mph 70 % 0.00 in
21:34 27.0 °F 18.5 °F 29.83 in Calm   2.3 mph 70 % 0.00 in
21:39 26.9 °F 18.4 °F 29.82 in WNW 1.5 mph 4.6 mph 70 % 0.00 in
21:44 26.9 °F 18.4 °F 29.82 in NW 0.8 mph 3.5 mph 70 % 0.00 in
21:50 26.8 °F 18.3 °F 29.83 in NW 1.9 mph 4.0 mph 70 % 0.00 in
21:55 26.8 °F 18.7 °F 29.83 in WNW 2.5 mph 3.5 mph 71 % 0.00 in
22:00 26.7 °F 18.6 °F 29.83 in Calm   1.2 mph 71 % 0.00 in
22:05 26.7 °F 18.6 °F 29.83 in NW 1.5 mph 3.5 mph 71 % 0.00 in
22:10 26.7 °F 18.6 °F 29.82 in WNW 2.0 mph 6.0 mph 71 % 0.00 in
22:15 26.6 °F 18.5 °F 29.82 in NW 1.0 mph 3.5 mph 71 % 0.00 in
22:20 26.6 °F 18.5 °F 29.83 in NW 0.7 mph 3.5 mph 71 % 0.00 in
22:25 26.5 °F 18.4 °F 29.83 in WNW 1.2 mph 3.5 mph 71 % 0.00 in
22:30 26.5 °F 18.4 °F 29.83 in WNW 1.6 mph 3.5 mph 71 % 0.00 in
22:35 26.5 °F 18.7 °F 29.82 in WNW 3.1 mph 4.6 mph 72 % 0.00 in
22:40 26.4 °F 18.6 °F 29.82 in NW 1.2 mph 4.6 mph 72 % 0.00 in
22:45 26.4 °F 18.6 °F 29.82 in NW 0.5 mph 4.6 mph 72 % 0.00 in
22:50 26.4 °F 18.9 °F 29.82 in WNW 0.9 mph 3.5 mph 73 % 0.00 in
22:55 26.3 °F 18.8 °F 29.82 in WNW 0.8 mph 2.0 mph 73 % 0.00 in
23:00 26.3 °F 18.8 °F 29.81 in West 0.7 mph 3.0 mph 73 % 0.00 in
23:05 26.3 °F 18.8 °F 29.81 in Calm     73 % 0.00 in
23:10 26.2 °F 18.7 °F 29.81 in Calm     73 % 0.00 in
23:15 26.1 °F 18.6 °F 29.81 in West 0.1 mph 1.2 mph 73 % 0.00 in
23:20 26.0 °F 18.8 °F 29.82 in West 0.9 mph 1.2 mph 74 % 0.00 in
23:25 25.8 °F 18.7 °F 29.81 in Calm   2.0 mph 74 % 0.00 in
23:31 25.7 °F 18.6 °F 29.81 in West 1.0 mph 2.0 mph 74 % 0.00 in
23:36 25.5 °F 18.7 °F 29.81 in West 1.0 mph 4.0 mph 75 % 0.00 in
23:40 25.3 °F 18.5 °F 29.81 in Calm   2.0 mph 75 % 0.00 in
23:45 25.2 °F 18.4 °F 29.81 in Calm   2.0 mph 75 % 0.00 in
23:50 25.0 °F 18.2 °F 29.81 in WNW 2.4 mph 3.5 mph 75 % 0.00 in
23:56 24.9 °F 18.1 °F 29.80 in WNW 3.0 mph 7.0 mph 75 % 0.00 in
Crab Meadow Weather
Compliments of Weather Underground - 3 mb

Script developed by  Jim McMurry - jmcmurry@mwt.net Adapted for the template by  Wim van der Kuil - Leuven-Template.eu

Weather Terms: Dense Fog Advisory - Widespread dense fog reducing visibility to less than 1/4 mile.